Location: Radomski Observatory
(40.2854°N, 79.5145°W)
Time: 13:53:08
(UTC-04:00)

Amateur Radio Satellites - All Passes

Search period start: 04 August 2015 13:23
Search period end: 05 August 2015 13:23
Location: Radomski Observatory, 40.2854°N, 79.5145°W

Satellite Date Start Highest point End Downlink Frequencies (MHz)
Time Altitude Azimuth
50 SAT 04 Aug 13:36:23 13:38:21 13° 294° (WNW) 13:40:09 437.505
Cosmos 2491 04 Aug 13:41:41 13:50:08 49° 285° (WNW) 13:58:31 435.465 / 435.565
Gurwin Techsat 1B 04 Aug 13:42:04 13:45:48 20° 65° (ENE) 13:49:41 435.225
ITAMSAT 1 04 Aug 13:43:17 13:46:40 18° 64° (ENE) 13:50:14 435.822/435.867
Cosmos 2504 04 Aug 13:45:18 13:53:32 52° 76° (ENE) 14:01:54 435.465 / 435.565
AISAT 04 Aug 13:45:57 13:48:37 16° 295° (WNW) 13:51:09 437.250
CUBEBUG 1 04 Aug 13:47:53 13:51:22 23° 291° (WNW) 13:54:45 437.445
Oscar 19 04 Aug 13:51:23 13:56:29 78° 75° (ENE) 14:01:39 437.125/150
ITUPSAT 1 04 Aug 13:57:01 13:59:00 13° 89° (E) 14:01:15 437.325
TISAT 1 04 Aug 14:06:04 14:10:18 77° 284° (WNW) 14:14:31 437.305
AO-7 04 Aug 14:07:55 14:11:53 15° 49° (NE) 14:16:18 29.400- 29.500
SPROUT 04 Aug 14:09:04 14:13:09 42° 287° (WNW) 14:17:13 437.525
BEESAT 04 Aug 14:48:45 14:53:21 46° 99° (E) 14:57:55 436.000
CUSAT 1 04 Aug 14:54:35 14:58:53 41° 78° (ENE) 15:04:33 437.405
DANDE 04 Aug 15:01:27 15:05:03 28° 77° (ENE) 15:09:42 436.750
SWISSCUBE 04 Aug 15:09:46 15:14:34 84° 103° (ESE) 15:19:19 437.505
JAS-2 04 Aug 15:11:05 15:17:04 50° 69° (ENE) 15:23:54 435.910
Gurwin Techsat 1B 04 Aug 15:20:14 15:25:25 53° 260° (W) 15:30:38 435.225
ITAMSAT 1 04 Aug 15:20:38 15:25:46 57° 259° (W) 15:30:55 435.822/435.867
ITUPSAT 1 04 Aug 15:32:40 15:37:25 64° 286° (WNW) 15:42:08 437.325
Oscar 19 04 Aug 15:34:39 15:36:34 12° 273° (W) 15:38:08 437.125/150
Cosmos 2504 04 Aug 15:38:00 15:45:30 35° 274° (W) 15:52:52 435.465 / 435.565
STARS 04 Aug 15:42:17 15:44:58 16° 91° (E) 15:47:50 437.465
GONETS M04 04 Aug 15:54:09 15:59:38 19° 61° (ENE) 16:05:34
AO-7 04 Aug 15:55:04 16:03:17 65° 68° (ENE) 16:11:34 29.400- 29.500
PCSat 04 Aug 16:12:10 16:12:34 10° 34° (NE) 16:13:12 145.827
KKS-1 04 Aug 16:17:17 16:21:45 67° 102° (ESE) 16:26:12 437.445
HORYU 2 04 Aug 16:21:35 16:26:02 83° 78° (ENE) 16:30:33 437.375
BEESAT 04 Aug 16:27:28 16:30:53 19° 294° (WNW) 16:34:08 436.000
CUSAT 1 04 Aug 16:37:39 16:41:25 22° 265° (W) 16:45:47 437.405
DANDE 04 Aug 16:44:29 16:48:07 26° 263° (W) 16:52:33 436.750
SWISSCUBE 04 Aug 16:50:18 16:51:48 11° 298° (WNW) 16:53:03 437.505
JAS-2 04 Aug 16:57:16 17:02:34 27° 270° (W) 17:08:15 435.910
Cosmos 2499 04 Aug 16:57:58 16:59:24 11° 53° (NE) 17:01:36 435.465 / 435.565
SO-50 04 Aug 17:09:22 17:13:46 31° 47° (NE) 17:18:06 436.795
STARS 04 Aug 17:17:27 17:21:41 45° 288° (WNW) 17:25:54 437.465
CUTE-I 04 Aug 17:18:35 17:21:07 14° 61° (ENE) 17:23:54 437.470
VERMONT LUNAR 04 Aug 17:18:42 17:21:34 32° 157° (SSE) 17:24:29 437.305
MOZHAYETS 4 04 Aug 17:35:16 17:39:50 57° 100° (E) 17:44:21
GONETS M04 04 Aug 17:49:10 17:57:56 90° 82° (E) 18:06:43
AO-7 04 Aug 17:49:44 17:56:42 27° 267° (W) 18:03:26 29.400- 29.500
PCSat 04 Aug 17:52:04 17:57:23 52° 56° (ENE) 18:02:40 145.827
KKS-1 04 Aug 17:55:56 17:57:53 12° 296° (WNW) 17:59:38 437.445
Cubesat XI-IV 04 Aug 18:01:14 18:05:59 34° 68° (ENE) 18:10:47 437.490
PHONESAT 2.4 04 Aug 18:35:26 18:38:08 21° 151° (SSE) 18:40:53 2401.200-2431.200
Cosmos 2499 04 Aug 18:46:22 18:55:00 56° 77° (ENE) 19:03:41 435.465 / 435.565
SO-50 04 Aug 18:49:50 18:54:21 36° 245° (WSW) 18:58:43 436.795
VERMONT LUNAR 04 Aug 18:54:56 18:58:07 88° 163° (SSE) 19:01:19 437.305
CUTE-I 04 Aug 18:55:13 19:00:35 81° 256° (WSW) 19:05:59 437.470
MOZHAYETS 4 04 Aug 19:13:56 19:16:37 15° 295° (WNW) 19:19:07
BRITE-PL 04 Aug 19:14:19 19:17:03 17° 68° (ENE) 19:19:52 437.365/2234.400
HO-68 04 Aug 19:17:36 19:21:50 18° 56° (NE) 19:26:22 435.675
RS-15 04 Aug 19:19:20 19:21:59 12° 98° (E) 19:25:49 29.354- 29.394
ISS 04 Aug 19:30:40 19:33:10 21° 133° (SE) 19:35:44 145.825
PCSat 04 Aug 19:36:23 19:40:28 21° 253° (WSW) 19:44:22 145.827
CUBESAT XI-V 04 Aug 19:40:04 19:44:41 82° 284° (WNW) 19:49:16 437.345
Cubesat XI-IV 04 Aug 19:41:21 19:46:06 31° 265° (W) 19:50:47 437.490
GONETS M04 04 Aug 19:48:21 19:53:43 17° 281° (W) 19:58:35
STRAND 1 04 Aug 20:06:12 20:11:10 51° 100° (E) 20:16:07 437.568
DOVE 4 04 Aug 20:11:38 20:14:56 24° 70° (ENE) 20:18:21 437.250
PHONESAT 2.4 04 Aug 20:12:17 20:15:47 69° 166° (SSE) 20:19:17 2401.200-2431.200
COMPASS 1 04 Aug 20:13:03 20:14:59 13° 66° (ENE) 20:17:08 437.405
VERMONT LUNAR 04 Aug 20:31:39 20:34:51 82° 190° (S) 20:38:01 437.305
SEEDS 04 Aug 20:32:53 20:36:27 27° 70° (ENE) 20:40:07 437.485
PRISM 04 Aug 20:39:52 20:44:00 82° 284° (WNW) 20:48:04 437.425
Cosmos 2499 04 Aug 20:40:12 20:47:49 33° 274° (W) 20:55:13 435.465 / 435.565
GOMX 1 04 Aug 20:41:33 20:45:45 88° 252° (WSW) 20:49:55 467.674
CUTE 1.7 + AOD 2 04 Aug 20:41:43 20:45:45 42° 73° (ENE) 20:49:51 437.475
AAUSAT CUBESAT 2 04 Aug 20:49:10 20:52:42 27° 70° (ENE) 20:56:20 437.432
CANX-2 04 Aug 20:50:32 20:54:44 60° 75° (ENE) 20:59:01 2200.000
BRITE-PL 04 Aug 20:51:22 20:55:24 37° 262° (W) 20:59:18 437.365/2234.400
HO-68 04 Aug 21:01:32 21:08:41 88° 74° (ENE) 21:15:54 435.675
Oscar 11 04 Aug 21:02:12 21:05:06 18° 67° (ENE) 21:08:10 145.826/435.025
ISS 04 Aug 21:06:20 21:09:27 41° 329° (NNW) 21:12:33 145.825
UWE-3 04 Aug 21:09:38 21:12:20 17° 66° (ENE) 21:15:14 435.000/436.395/437.385
RS-15 04 Aug 21:21:44 21:32:24 66° 115° (ESE) 21:43:30 29.354- 29.394
CINEMA 3 04 Aug 21:28:05 21:32:13 77° 76° (ENE) 21:36:30 145.822/145.860
CUBEBUG 2 04 Aug 21:32:19 21:36:11 37° 72° (ENE) 21:40:13 437.445
DELFI C3 04 Aug 21:42:06 21:45:39 31° 71° (ENE) 21:49:18 145.870
COMPASS 1 04 Aug 21:46:06 21:50:14 54° 260° (W) 21:54:24 437.405
STRAND 1 04 Aug 21:46:22 21:50:02 20° 295° (WNW) 21:53:33 437.568
DOVE 4 04 Aug 21:49:12 21:52:41 25° 266° (W) 21:56:07 437.250
PHONESAT 2.4 04 Aug 21:50:13 21:53:45 86° 357° (N) 21:57:16 2401.200-2431.200
Cosmos 2491 04 Aug 21:57:28 22:02:19 16° 59° (ENE) 22:07:40 435.465 / 435.565
BEESAT 3 04 Aug 22:02:51 22:04:46 13° 110° (ESE) 22:06:52 437.485
VERMONT LUNAR 04 Aug 22:08:35 22:11:20 27° 205° (SSW) 22:14:04 437.305
SEEDS 04 Aug 22:08:42 22:12:13 24° 266° (W) 22:15:42 437.485
VELOX 1 04 Aug 22:10:25 22:11:10 11° 63° (ENE) 22:12:11 145.980
ZACube-1 04 Aug 22:11:12 22:15:21 62° 75° (ENE) 22:19:39 437.345
CUTE 1.7 + AOD 2 04 Aug 22:19:12 22:21:55 16° 270° (W) 22:24:29 437.475
HUMSAT D 04 Aug 22:24:50 22:28:36 34° 71° (ENE) 22:32:28 437.325/437.525
AAUSAT CUBESAT 2 04 Aug 22:24:50 22:28:18 24° 266° (W) 22:31:42 437.432
CANX-2 04 Aug 22:29:44 22:31:09 11° 272° (W) 22:32:19 2200.000
FUNcube-1 04 Aug 22:30:58 22:35:11 80° 258° (WSW) 22:39:31 145.935
ESTCUBE 1 04 Aug 22:36:26 22:38:55 15° 65° (ENE) 22:41:33 437.505/2401.250
Oscar 11 04 Aug 22:36:56 22:41:01 40° 262° (W) 22:45:08 145.826/435.025
UKube-1 04 Aug 22:38:52 22:42:42 33° 70° (ENE) 22:46:36 .
50 SAT 04 Aug 22:43:49 22:47:01 25° 70° (ENE) 22:50:18 437.505
UWE-3 04 Aug 22:44:35 22:48:34 40° 263° (W) 22:52:40 435.000/436.395/437.385
ISS 04 Aug 22:44:48 22:46:33 14° 348° (NNW) 22:48:17 145.825
TIGRISAT 04 Aug 22:48:12 22:50:54 16° 90° (E) 22:53:48 435.000
ANTELSAT 04 Aug 22:51:30 22:54:34 18° 91° (E) 22:57:49 437.575/2403.000
AIST 1 04 Aug 22:53:15 22:57:05 33° 76° (ENE) 23:00:58
HO-68 04 Aug 22:53:15 22:57:28 16° 273° (W) 23:01:15 435.675
M-CUBED/EXP-1 PRIME 04 Aug 22:54:40 22:59:20 51° 104° (ESE) 23:03:49 437.505
BEESAT 2 04 Aug 23:04:30 23:08:26 49° 118° (ESE) 23:12:26 435.950
AISAT 04 Aug 23:05:19 23:09:27 42° 72° (ENE) 23:13:37 437.250
CUBEBUG 1 04 Aug 23:07:16 23:10:45 24° 69° (ENE) 23:14:18 437.445
CUBEBUG 2 04 Aug 23:10:13 23:13:06 17° 269° (W) 23:15:55 437.445
DX 1 04 Aug 23:12:50 23:17:10 87° 77° (ENE) 23:21:32 434.975-435.025
QB50P2 04 Aug 23:16:32 23:17:18 11° 88° (E) 23:18:21 145.880/145.840
DELFI C3 04 Aug 23:17:45 23:20:48 20° 267° (W) 23:23:45 145.870
AUBIESAT-1 04 Aug 23:19:57 23:24:43 82° 107° (ESE) 23:29:15 437.475
AIST 2 04 Aug 23:28:10 23:31:09 19° 112° (ESE) 23:34:17 435.215
PHONESAT 2.4 04 Aug 23:28:15 23:31:38 47° 200° (SSW) 23:35:01 2401.200-2431.200
SPROUT 04 Aug 23:29:09 23:30:51 12° 65° (ENE) 23:32:46 437.525
DUCHIFAT 1 04 Aug 23:34:40 23:37:18 16° 91° (E) 23:40:06 145.980
RS-15 04 Aug 23:35:20 23:45:35 41° 321° (NW) 23:56:05 29.354- 29.394
BEESAT 3 04 Aug 23:38:19 23:42:18 53° 305° (NW) 23:46:19 437.485
NANOSAT C BR1 04 Aug 23:40:20 23:43:25 20° 93° (E) 23:46:35 145.865
QB50P1 04 Aug 23:40:47 23:43:56 20° 93° (E) 23:47:10 145.935-145.965
UNISAT 6 04 Aug 23:41:44 23:46:24 59° 100° (E) 23:51:04 437.425
VELOX 1 04 Aug 23:42:45 23:47:10 77° 258° (WSW) 23:51:35 145.980
ZACube-1 04 Aug 23:51:12 23:52:16 11° 273° (W) 23:53:03 437.345
Cosmos 2491 04 Aug 23:52:06 00:00:52 82° 82° (E) 00:09:37 435.465 / 435.565
HUMSAT D 05 Aug 00:01:29 00:04:29 18° 268° (W) 00:07:23 437.325/437.525
ESTCUBE 1 05 Aug 00:10:55 00:15:22 55° 260° (W) 00:19:50 437.505/2401.250
YUBILEINY 05 Aug 00:11:00 00:19:12 50° 90° (E) 00:27:33 435.215
UKube-1 05 Aug 00:15:35 00:18:55 21° 266° (W) 00:22:10 .
50 SAT 05 Aug 00:18:25 00:21:33 22° 266° (W) 00:24:39 437.505
ISS 05 Aug 00:22:34 00:24:03 12° 9° (N) 00:25:34 145.825
BUGSAT 1 05 Aug 00:22:44 00:26:31 35° 98° (E) 00:30:20 437.445
TIGRISAT 05 Aug 00:23:24 00:28:00 53° 286° (WNW) 00:32:34 435.000
POLYITAN 1 05 Aug 00:25:16 00:29:33 67° 101° (E) 00:33:50 437.675
ANTELSAT 05 Aug 00:27:06 00:31:38 47° 287° (WNW) 00:36:07 437.575/2403.000
M-CUBED/EXP-1 PRIME 05 Aug 00:30:18 00:33:42 19° 300° (WNW) 00:36:54 437.505
O/OREOS (USA 219) 05 Aug 00:30:27 00:33:38 20° 102° (ESE) 00:36:57 437.305
AIST 1 05 Aug 00:31:32 00:34:31 18° 272° (W) 00:37:23
POPSAT HIP 1 05 Aug 00:40:36 00:44:54 84° 281° (W) 00:49:11 437.405
SWISSCUBE 05 Aug 00:42:34 00:43:12 10° 61° (ENE) 00:44:07 437.505
CUBEBUG 1 05 Aug 00:43:12 00:47:01 28° 264° (W) 00:50:46 437.445
AISAT 05 Aug 00:43:20 00:46:16 17° 268° (W) 00:49:02 437.250
BEESAT 2 05 Aug 00:43:51 00:46:47 18° 316° (NW) 00:49:38 435.950
QB50P2 05 Aug 00:49:26 00:53:41 63° 285° (WNW) 00:57:55 145.880/145.840
AUBIESAT-1 05 Aug 00:56:39 00:58:45 13° 303° (WNW) 01:00:39 437.475
TISAT 1 05 Aug 00:57:22 01:01:31 73° 75° (ENE) 01:05:42 437.305
SPROUT 05 Aug 01:02:16 01:06:29 60° 260° (W) 01:10:42 437.525
ITUPSAT 1 05 Aug 01:03:21 01:06:06 16° 64° (ENE) 01:09:02 437.325
AIST 2 05 Aug 01:05:27 01:09:29 40° 308° (NW) 01:13:32 435.215
PHONESAT 2.4 05 Aug 01:07:33 01:09:07 12° 214° (SSW) 01:10:36 2401.200-2431.200
DUCHIFAT 1 05 Aug 01:09:19 01:13:19 40° 288° (WNW) 01:17:18 145.980
NANOSAT C BR1 05 Aug 01:15:28 01:19:21 34° 289° (WNW) 01:23:11 145.865
QB50P1 05 Aug 01:16:02 01:19:52 33° 289° (WNW) 01:23:41 145.935-145.965
UNISAT 6 05 Aug 01:19:57 01:22:44 15° 295° (WNW) 01:25:20 437.425
Cosmos 2491 05 Aug 01:50:55 01:56:48 20° 279° (W) 02:02:14 435.465 / 435.565
RS-15 05 Aug 01:54:33 02:02:24 20° 353° (N) 02:10:24 29.354- 29.394
BEESAT 05 Aug 01:54:35 01:59:12 50° 72° (ENE) 02:03:51 436.000
ISS 05 Aug 01:58:17 02:01:15 32° 28° (NNE) 02:04:15 145.825
BUGSAT 1 05 Aug 01:58:53 02:01:46 18° 292° (WNW) 02:04:32 437.445
POLYITAN 1 05 Aug 02:03:26 02:04:58 11° 296° (WNW) 02:06:16 437.675
Oscar 19 05 Aug 02:03:53 02:08:18 28° 95° (E) 02:12:47 437.125/150
YUBILEINY 05 Aug 02:08:26 02:16:19 36° 290° (WNW) 02:24:08 435.215
O/OREOS (USA 219) 05 Aug 02:08:38 02:12:49 37° 298° (WNW) 02:17:01 437.305
SWISSCUBE 05 Aug 02:15:35 02:20:24 89° 76° (ENE) 02:25:14 437.505
Cosmos 2504 05 Aug 02:15:55 02:22:14 36° 87° (E) 02:29:07 435.465 / 435.565
ITUPSAT 1 05 Aug 02:38:48 02:43:34 59° 260° (W) 02:48:20 437.325
STARS 05 Aug 02:39:30 02:41:45 14° 65° (ENE) 02:44:10 437.465
KKS-1 05 Aug 03:14:48 03:19:07 56° 74° (ENE) 03:23:29 437.445
ITAMSAT 1 05 Aug 03:33:57 03:39:00 52° 100° (E) 03:44:03 435.822/435.867
BEESAT 05 Aug 03:34:13 03:37:22 17° 269° (W) 03:40:20 436.000
ISS 05 Aug 03:34:45 03:37:39 29° 225° (SW) 03:40:32 145.825
Gurwin Techsat 1B 05 Aug 03:36:46 03:42:04 65° 101° (E) 03:47:21 435.225
Oscar 19 05 Aug 03:43:01 03:47:41 34° 291° (WNW) 03:52:18 437.125/150
AO-7 05 Aug 03:58:43 04:04:19 20° 90° (E) 04:10:19 29.400- 29.500
CUSAT 1 05 Aug 04:04:00 04:06:23 28° 96° (E) 04:08:42 437.405
JAS-2 05 Aug 04:05:13 04:12:52 52° 97° (E) 04:20:16 435.910
Cosmos 2504 05 Aug 04:07:32 04:14:20 41° 287° (WNW) 04:21:33 435.465 / 435.565
RS-15 05 Aug 04:10:42 04:20:11 29° 28° (NNE) 04:30:15 29.354- 29.394
STARS 05 Aug 04:13:30 04:17:47 54° 260° (W) 04:22:06 437.465
HORYU 2 05 Aug 04:14:29 04:17:17 17° 91° (E) 04:20:15 437.375
DANDE 05 Aug 04:15:04 04:17:29 23° 97° (E) 04:19:44 436.750
MOZHAYETS 4 05 Aug 04:36:27 04:40:56 50° 73° (ENE) 04:45:27
KKS-1 05 Aug 04:54:05 04:56:11 13° 271° (W) 04:58:03 437.445
GONETS M04 05 Aug 04:56:04 05:01:46 21° 81° (E) 05:07:55
ITAMSAT 1 05 Aug 05:14:27 05:18:09 20° 296° (WNW) 05:21:42 435.822/435.867
Gurwin Techsat 1B 05 Aug 05:18:11 05:21:34 17° 297° (WNW) 05:24:44 435.225
AO-7 05 Aug 05:49:46 05:58:09 81° 289° (WNW) 06:06:26 29.400- 29.500
HORYU 2 05 Aug 05:49:53 05:54:12 45° 288° (WNW) 05:58:28 437.375
JAS-2 05 Aug 05:50:37 05:57:36 35° 295° (WNW) 06:04:17 435.910
MOZHAYETS 4 05 Aug 06:15:35 06:18:30 16° 270° (W) 06:21:14
Cubesat XI-IV 05 Aug 06:20:36 06:22:51 13° 88° (E) 06:25:25 437.490
RS-15 05 Aug 06:23:14 06:35:03 76° 55° (NE) 06:47:19 29.354- 29.394
CUBESAT XI-V 05 Aug 06:42:36 06:47:16 90° 81° (E) 06:51:57 437.345
GONETS M04 05 Aug 06:49:03 06:57:46 78° 279° (W) 07:06:30
CUTE-I 05 Aug 07:13:02 07:18:04 42° 98° (E) 07:23:05 437.470
STRAND 1 05 Aug 07:21:26 07:26:32 70° 74° (ENE) 07:31:40 437.568
Cosmos 2499 05 Aug 07:22:39 07:29:32 42° 88° (E) 07:37:02 435.465 / 435.565
BEESAT 2 05 Aug 07:24:12 07:27:41 27° 49° (NE) 07:31:10 435.950
PRISM 05 Aug 07:28:57 07:33:06 67° 75° (ENE) 07:37:15 437.425
AO-7 05 Aug 07:44:22 07:49:51 19° 308° (NW) 07:54:58 29.400- 29.500
AIST 2 05 Aug 07:50:13 07:52:26 14° 41° (NE) 07:54:46 435.215
BEESAT 3 05 Aug 07:57:07 08:01:11 75° 58° (ENE) 08:05:09 437.485
Cubesat XI-IV 05 Aug 07:58:18 08:03:38 74° 286° (WNW) 08:08:56 437.490
HO-68 05 Aug 08:31:44 08:35:49 16° 88° (E) 08:40:19 435.675
PCSat 05 Aug 08:33:04 08:38:17 53° 114° (ESE) 08:43:35 145.827
AUBIESAT-1 05 Aug 08:35:53 08:36:43 11° 56° (NE) 08:37:48 437.475
RS-15 05 Aug 08:36:47 08:46:44 31° 254° (WSW) 08:56:28 29.354- 29.394
CANX-2 05 Aug 08:38:52 08:39:53 11° 88° (E) 08:41:11 2200.000
GOMX 1 05 Aug 08:43:07 08:47:08 28° 95° (E) 08:51:28 467.674
GONETS M04 05 Aug 08:51:25 08:56:25 15° 302° (WNW) 09:00:52
CUTE-I 05 Aug 08:53:38 08:57:56 25° 294° (WNW) 09:02:06 437.470
BRITE-PL 05 Aug 08:55:02 08:59:32 62° 101° (E) 09:04:23 437.365/2234.400
BEESAT 2 05 Aug 09:02:12 09:05:42 27° 246° (WSW) 09:09:05 435.950
SO-50 05 Aug 09:02:48 09:07:34 86° 122° (ESE) 09:12:29 436.795
STRAND 1 05 Aug 09:03:46 09:06:21 13° 272° (W) 09:08:38 437.568
Cosmos 2499 05 Aug 09:15:54 09:22:49 37° 289° (WNW) 09:30:09 435.465 / 435.565
CINEMA 3 05 Aug 09:23:30 09:27:04 21° 92° (E) 09:30:51 145.822/145.860
AIST 2 05 Aug 09:27:22 09:31:33 73° 240° (WSW) 09:35:38 435.215
COMPASS 1 05 Aug 09:30:26 09:33:50 24° 94° (E) 09:37:16 437.405
M-CUBED/EXP-1 PRIME 05 Aug 09:41:45 09:45:51 58° 69° (ENE) 09:50:18 437.505
DOVE 4 05 Aug 09:46:42 09:51:27 79° 102° (ESE) 09:56:30 437.250
TIGRISAT 05 Aug 09:47:39 09:49:31 13° 64° (ENE) 09:51:37 435.000
ANTELSAT 05 Aug 09:50:58 09:53:18 15° 65° (ENE) 09:55:52 437.575/2403.000
SEEDS 05 Aug 09:52:34 09:56:45 56° 100° (E) 10:00:54 437.485
ZACube-1 05 Aug 10:01:44 10:03:56 14° 89° (E) 10:06:23 437.345
CUTE 1.7 + AOD 2 05 Aug 10:02:52 10:07:11 88° 283° (WNW) 10:11:28 437.475
AUBIESAT-1 05 Aug 10:06:31 10:10:41 87° 249° (WSW) 10:15:13 437.475
AAUSAT CUBESAT 2 05 Aug 10:07:15 10:11:23 54° 100° (E) 10:15:27 437.432
CANX-2 05 Aug 10:12:03 10:16:19 61° 284° (WNW) 10:20:31 2200.000
HO-68 05 Aug 10:17:17 10:24:32 85° 287° (WNW) 10:31:44 435.675
PCSat 05 Aug 10:17:40 10:22:04 24° 313° (NW) 10:26:24 145.827
FUNcube-1 05 Aug 10:20:18 10:23:44 21° 92° (E) 10:27:18 145.935
GOMX 1 05 Aug 10:21:11 10:25:16 30° 289° (WNW) 10:29:29 467.674
YUBILEINY 05 Aug 10:22:12 10:28:49 24° 64° (ENE) 10:35:45 435.215
Oscar 11 05 Aug 10:24:37 10:28:39 36° 97° (E) 10:32:40 145.826/435.025
DUCHIFAT 1 05 Aug 10:27:52 10:29:27 12° 65° (ENE) 10:31:14 145.980
NANOSAT C BR1 05 Aug 10:33:22 10:35:36 15° 66° (ENE) 10:38:00 145.865
QB50P1 05 Aug 10:33:59 10:36:19 15° 66° (ENE) 10:38:49 145.935-145.965
UWE-3 05 Aug 10:34:24 10:38:47 40° 98° (E) 10:43:13 435.000/436.395/437.385
BRITE-PL 05 Aug 10:35:24 10:37:44 14° 294° (WNW) 10:39:56 437.365/2234.400
O/OREOS (USA 219) 05 Aug 10:39:36 10:43:51 36° 62° (ENE) 10:48:07 437.305
UNISAT 6 05 Aug 10:40:12 10:44:24 47° 73° (ENE) 10:48:45 437.425
SO-50 05 Aug 10:45:47 10:48:50 16° 322° (NW) 10:51:49 436.795
DELFI C3 05 Aug 10:55:56 10:59:56 55° 100° (E) 11:03:53 145.870
CUBEBUG 2 05 Aug 10:59:32 11:04:15 85° 283° (WNW) 11:09:01 437.445
Cosmos 2491 05 Aug 10:59:43 11:04:57 19° 80° (E) 11:10:38 435.465 / 435.565
CINEMA 3 05 Aug 10:59:55 11:04:25 41° 287° (WNW) 11:09:01 145.822/145.860
DX 1 05 Aug 11:02:58 11:05:28 15° 91° (E) 11:08:08 434.975-435.025
COMPASS 1 05 Aug 11:05:52 11:09:28 27° 290° (WNW) 11:13:00 437.405
BUGSAT 1 05 Aug 11:12:47 11:15:57 23° 69° (ENE) 11:19:12 437.445
POLYITAN 1 05 Aug 11:17:40 11:21:41 46° 73° (ENE) 11:25:44 437.675
M-CUBED/EXP-1 PRIME 05 Aug 11:19:11 11:21:10 13° 268° (W) 11:22:59 437.505
TIGRISAT 05 Aug 11:21:26 11:25:45 63° 259° (W) 11:30:13 435.000
AIST 1 05 Aug 11:22:46 11:25:57 21° 89° (E) 11:29:14
ANTELSAT 05 Aug 11:25:21 11:29:38 54° 260° (W) 11:34:05 437.575/2403.000
DOVE 4 05 Aug 11:26:50 11:28:44 12° 295° (WNW) 11:30:25 437.250
SEEDS 05 Aug 11:30:01 11:32:06 13° 295° (WNW) 11:34:00 437.485
POPSAT HIP 1 05 Aug 11:32:38 11:36:46 67° 75° (ENE) 11:40:58 437.405
VELOX 1 05 Aug 11:34:26 11:37:41 20° 93° (E) 11:41:03 145.980
ZACube-1 05 Aug 11:36:11 11:40:42 57° 286° (WNW) 11:45:12 437.345
QB50P2 05 Aug 11:41:29 11:45:41 89° 84° (E) 11:49:56 145.880/145.840
HUMSAT D 05 Aug 11:44:16 11:48:37 73° 101° (ESE) 11:52:56 437.325/437.525
AAUSAT CUBESAT 2 05 Aug 11:44:29 11:46:33 13° 295° (WNW) 11:48:26 437.432
50 SAT 05 Aug 11:53:19 11:57:04 39° 98° (E) 12:00:48 437.505
FUNcube-1 05 Aug 11:55:57 12:00:10 36° 288° (WNW) 12:04:21 145.935
DUCHIFAT 1 05 Aug 12:00:41 12:04:48 59° 259° (W) 12:08:57 145.980
Oscar 11 05 Aug 12:01:23 12:04:36 20° 292° (WNW) 12:07:41 145.826/435.025
UKube-1 05 Aug 12:02:11 12:06:29 65° 102° (ESE) 12:10:46 .
Cosmos 2504 05 Aug 12:04:14 12:06:57 12° 56° (NE) 12:10:21 435.465 / 435.565
ESTCUBE 1 05 Aug 12:04:18 12:08:17 31° 96° (E) 12:12:17 437.505/2401.250
HO-68 05 Aug 12:06:55 12:11:21 17° 304° (NW) 12:15:29 435.675
NANOSAT C BR1 05 Aug 12:07:01 12:11:03 48° 261° (W) 12:15:09 145.865
QB50P1 05 Aug 12:07:47 12:11:50 46° 261° (W) 12:15:54 145.935-145.965
UWE-3 05 Aug 12:11:34 12:15:03 21° 292° (WNW) 12:18:26 435.000/436.395/437.385
YUBILEINY 05 Aug 12:17:52 12:26:41 75° 266° (W) 12:35:28 435.215
UNISAT 6 05 Aug 12:18:51 12:21:32 15° 270° (W) 12:24:04 437.425
O/OREOS (USA 219) 05 Aug 12:19:32 12:23:04 21° 258° (WSW) 12:26:29 437.305
CUBEBUG 1 05 Aug 12:31:46 12:35:59 51° 99° (E) 12:40:14 437.445
AISAT 05 Aug 12:32:25 12:36:52 86° 284° (WNW) 12:41:18 437.250
DELFI C3 05 Aug 12:32:53 12:34:33 12° 295° (WNW) 12:36:02 145.870
DX 1 05 Aug 12:37:50 12:42:00 45° 288° (WNW) 12:46:08 434.975-435.025
TISAT 1 05 Aug 12:44:22 12:45:47 12° 89° (E) 12:47:27 437.305
BUGSAT 1 05 Aug 12:47:57 12:51:22 25° 265° (W) 12:54:43 437.445
SPROUT 05 Aug 12:49:48 12:53:16 24° 94° (E) 12:56:48 437.525
Cosmos 2491 05 Aug 12:52:02 13:00:49 86° 278° (W) 13:09:37 435.465 / 435.565
POLYITAN 1 05 Aug 12:55:32 12:57:53 14° 270° (W) 13:00:04 437.675
AIST 1 05 Aug 12:59:35 13:03:27 30° 285° (WNW) 13:07:15
VELOX 1 05 Aug 13:10:19 13:14:21 35° 289° (WNW) 13:18:20 145.980
